Location: Arbon
(43.0005°N, 0.7472°E)
Time: 06:07:48
(UTC+00:00)

Vanguard 2 Rocket - Pass Details

Date: 24 June 2021
Orbit: 554 x 3325 km, 32.9° (Epoch: 26 July)

Event Time Altitude Azimuth Distance (km) Brightness Sun altitude
Rises 21:26:45 0° 270° (W) 7,315 12.0 -14.9°
Reaches altitude 10° 21:32:00 10° 267° (W) 6,229 11.6 -15.4°
Maximum altitude 21:50:08 52° 199° (SSW) 3,067 9.3 -17.2°
Enters shadow 21:59:18 21° 134° (SE) 3,670 9.4 -18.1°
